AFR705 MMMX-MMAA

Flight info

Callsign AFR705
Flight time 0h 28m
Altitude 32000
Route MMMX MEX TEQ CF10 ACA MMAA
Aircraft CONC/H-SDE3/L

Departure

Time 2026-05-06 18:50
Airport Mexico City Benito Juárez International Airport (MMMX)

Arrival

Time 2026-05-06 19:19
Airport General Juan N. Álvarez International Airport (MMAA)
Time Latitude Longitude Altitude Speed Heading
2026-05-06 18:36 19.43142 -99.08912 7329 ft 0 kts 223°
2026-05-06 18:42 19.43105 -99.08941 7329 ft 14 kts 212°
2026-05-06 18:42 19.42982 -99.08995 7329 ft 21 kts 198°
2026-05-06 18:43 19.42866 -99.08994 7329 ft 2 kts 153°
2026-05-06 18:44 19.42865 -99.08994 7329 ft 0 kts 153°
2026-05-06 18:46 19.42865 -99.08993 7329 ft 0 kts 153°
2026-05-06 18:48 19.42864 -99.08993 7329 ft 0 kts 153°
2026-05-06 18:48 19.42863 -99.08993 7329 ft 2 kts 153°
2026-05-06 18:49 19.42825 -99.08931 7329 ft 12 kts 77°
2026-05-06 18:49 19.42838 -99.08894 7329 ft 0 kts 66°
2026-05-06 18:50 19.42842 -99.08885 7329 ft 11 kts 65°
2026-05-06 18:50 19.43085 -99.08449 7329 ft 130 kts 59°
2026-05-06 18:50 19.43735 -99.07286 7331 ft 233 kts 59°
2026-05-06 18:50 19.44645 -99.05674 8467 ft 247 kts 57°
2026-05-06 18:51 19.45121 -99.04148 10258 ft 214 kts 94°
2026-05-06 18:51 19.44405 -99.02644 10644 ft 255 kts 137°
2026-05-06 18:51 19.42789 -99.01921 11872 ft 248 kts 175°
2026-05-06 18:51 19.41272 -99.02246 13948 ft 200 kts 202°
2026-05-06 18:52 19.40148 -99.02914 15420 ft 181 kts 205°
2026-05-06 18:52 19.38915 -99.03595 15954 ft 226 kts 203°
2026-05-06 18:52 19.37415 -99.04324 17738 ft 233 kts 202°
2026-05-06 18:52 19.36067 -99.05018 20697 ft 194 kts 206°
2026-05-06 18:53 19.34925 -99.05749 22725 ft 203 kts 213°
2026-05-06 18:53 19.33586 -99.06693 23287 ft 264 kts 213°
2026-05-06 18:53 19.31857 -99.07867 24042 ft 320 kts 210°
2026-05-06 18:53 19.29863 -99.08966 26411 ft 321 kts 205°
2026-05-06 18:54 19.27854 -99.09879 29352 ft 320 kts 204°
2026-05-06 18:54 19.25608 -99.10824 30663 ft 365 kts 201°
2026-05-06 18:54 19.23097 -99.11714 31898 ft 408 kts 199°
2026-05-06 18:54 19.20148 -99.12651 32518 ft 473 kts 197°
2026-05-06 18:55 19.17955 -99.13305 32427 ft 516 kts 197°
2026-05-06 18:55 19.13202 -99.14629 32413 ft 544 kts 195°
2026-05-06 18:55 19.09472 -99.15609 32426 ft 561 kts 195°
2026-05-06 18:55 19.05637 -99.16582 32433 ft 573 kts 194°
2026-05-06 18:56 19.01732 -99.17549 32437 ft 581 kts 194°
2026-05-06 18:56 18.95131 -99.19146 32446 ft 591 kts 194°
2026-05-06 18:57 18.87169 -99.21038 32457 ft 597 kts 194°
2026-05-06 18:57 18.79048 -99.22947 32460 ft 600 kts 193°
2026-05-06 18:58 18.73517 -99.24236 32461 ft 602 kts 193°
2026-05-06 18:58 18.65402 -99.26349 32462 ft 603 kts 197°
2026-05-06 18:59 18.57388 -99.28960 32455 ft 603 kts 199°
2026-05-06 18:59 18.49412 -99.31811 32454 ft 603 kts 200°
2026-05-06 19:00 18.41500 -99.34736 32448 ft 603 kts 200°
2026-05-06 19:00 18.33603 -99.37680 32448 ft 603 kts 200°
2026-05-06 19:01 18.25640 -99.40638 32448 ft 603 kts 200°
2026-05-06 19:01 18.17737 -99.43554 32446 ft 603 kts 200°
2026-05-06 19:01 18.13798 -99.44998 32445 ft 591 kts 200°
2026-05-06 19:02 18.10014 -99.46377 32275 ft 565 kts 200°
2026-05-06 19:02 18.06355 -99.47704 31447 ft 550 kts 200°
2026-05-06 19:02 18.02780 -99.48994 30580 ft 538 kts 200°
2026-05-06 19:02 17.99275 -99.50254 29712 ft 535 kts 200°
2026-05-06 19:03 17.95690 -99.51539 28822 ft 534 kts 200°
2026-05-06 19:03 17.92188 -99.52793 27954 ft 535 kts 200°
2026-05-06 19:03 17.88671 -99.54051 27081 ft 532 kts 199°
2026-05-06 19:03 17.85195 -99.55292 26210 ft 527 kts 199°
2026-05-06 19:04 17.81736 -99.56525 25336 ft 523 kts 199°
2026-05-06 19:04 17.78313 -99.57745 24464 ft 519 kts 199°
2026-05-06 19:04 17.74895 -99.58962 23587 ft 514 kts 199°
2026-05-06 19:04 17.71528 -99.60160 22715 ft 509 kts 199°
2026-05-06 19:05 17.68203 -99.61343 21843 ft 503 kts 199°
2026-05-06 19:05 17.64912 -99.62513 20971 ft 497 kts 198°
2026-05-06 19:05 17.61654 -99.63669 20096 ft 491 kts 198°
2026-05-06 19:05 17.58438 -99.64810 19222 ft 485 kts 198°
2026-05-06 19:06 17.55270 -99.65932 18349 ft 479 kts 198°
2026-05-06 19:06 17.52088 -99.67058 17464 ft 474 kts 198°
2026-05-06 19:06 17.48978 -99.68157 16590 ft 470 kts 197°
2026-05-06 19:06 17.45903 -99.69243 15718 ft 466 kts 197°
2026-05-06 19:07 17.42850 -99.70320 14845 ft 462 kts 197°
2026-05-06 19:07 17.39823 -99.71386 13971 ft 458 kts 197°
2026-05-06 19:07 17.36826 -99.72441 13099 ft 454 kts 198°
2026-05-06 19:07 17.33848 -99.73489 12224 ft 450 kts 198°
2026-05-06 19:08 17.30902 -99.74525 11403 ft 445 kts 198°
2026-05-06 19:08 17.28040 -99.75529 11399 ft 423 kts 198°
2026-05-06 19:08 17.25309 -99.76488 11411 ft 405 kts 198°
2026-05-06 19:08 17.22693 -99.77405 11414 ft 390 kts 198°
2026-05-06 19:09 17.20162 -99.78290 11415 ft 377 kts 197°
2026-05-06 19:09 17.17720 -99.79142 11415 ft 365 kts 197°
2026-05-06 19:09 17.15347 -99.79969 11415 ft 355 kts 197°
2026-05-06 19:09 17.13039 -99.80772 11433 ft 325 kts 197°
2026-05-06 19:10 17.11047 -99.81464 11405 ft 282 kts 197°
2026-05-06 19:10 17.09273 -99.82074 11263 ft 258 kts 197°
2026-05-06 19:10 17.07595 -99.82647 10652 ft 256 kts 197°
2026-05-06 19:10 17.05957 -99.83202 9782 ft 231 kts 197°
2026-05-06 19:11 17.04474 -99.83707 8902 ft 220 kts 199°
2026-05-06 19:11 17.03040 -99.84198 8030 ft 215 kts 198°
2026-05-06 19:11 17.01636 -99.84684 7157 ft 211 kts 198°
2026-05-06 19:11 17.00246 -99.85168 6276 ft 207 kts 198°
2026-05-06 19:12 16.98893 -99.85641 5404 ft 204 kts 198°
2026-05-06 19:12 16.97563 -99.86107 4532 ft 200 kts 198°
2026-05-06 19:12 16.96256 -99.86565 3659 ft 197 kts 198°
2026-05-06 19:12 16.94969 -99.87018 2885 ft 191 kts 198°
2026-05-06 19:13 16.93782 -99.87436 2940 ft 178 kts 197°
2026-05-06 19:13 16.92597 -99.87851 2992 ft 180 kts 198°
2026-05-06 19:13 16.91428 -99.88262 2995 ft 175 kts 197°
2026-05-06 19:13 16.90282 -99.88664 2995 ft 173 kts 197°
2026-05-06 19:14 16.89145 -99.89064 2936 ft 174 kts 198°
2026-05-06 19:14 16.88002 -99.89466 2696 ft 173 kts 197°
2026-05-06 19:14 16.86867 -99.89865 2436 ft 172 kts 197°
2026-05-06 19:14 16.85719 -99.90268 2191 ft 171 kts 198°
2026-05-06 19:15 16.84598 -99.90662 2044 ft 170 kts 197°
2026-05-06 19:15 16.83467 -99.90988 1970 ft 168 kts 182°
2026-05-06 19:15 16.82331 -99.90789 1983 ft 166 kts 161°
2026-05-06 19:15 16.81291 -99.90275 1975 ft 165 kts 144°
2026-05-06 19:16 16.80445 -99.89474 1973 ft 165 kts 130°
2026-05-06 19:16 16.79773 -99.88509 1969 ft 164 kts 120°
2026-05-06 19:16 16.79273 -99.87444 1976 ft 163 kts 111°
2026-05-06 19:16 16.78917 -99.86303 1979 ft 165 kts 105°
2026-05-06 19:17 16.78642 -99.85122 1697 ft 168 kts 102°
2026-05-06 19:17 16.78380 -99.83950 1463 ft 165 kts 103°
2026-05-06 19:17 16.78071 -99.82812 1285 ft 163 kts 106°
2026-05-06 19:17 16.77712 -99.81692 1094 ft 163 kts 108°
2026-05-06 19:18 16.77339 -99.80581 892 ft 162 kts 109°
2026-05-06 19:18 16.76924 -99.79485 704 ft 154 kts 100°
2026-05-06 19:18 16.76674 -99.78437 408 ft 146 kts 101°
2026-05-06 19:18 16.76378 -99.77451 190 ft 138 kts 104°
2026-05-06 19:19 16.76060 -99.76500 52 ft 143 kts 102°
2026-05-06 19:19 16.75766 -99.75556 28 ft 117 kts 105°
2026-05-06 19:19 16.75614 -99.75053 26 ft 39 kts 107°
2026-05-06 19:19 16.75525 -99.74772 26 ft 42 kts 108°
2026-05-06 19:20 16.75462 -99.74577 26 ft 27 kts 108°
2026-05-06 19:20 16.75400 -99.74378 26 ft 28 kts 107°
2026-05-06 19:20 16.75367 -99.74253 26 ft 14 kts 91°
2026-05-06 19:20 16.75437 -99.74192 26 ft 16 kts 17°
2026-05-06 19:21 16.75533 -99.74190 26 ft 13 kts 316°
2026-05-06 19:21 16.75577 -99.74294 26 ft 18 kts 288°
2026-05-06 19:21 16.75622 -99.74439 26 ft 24 kts 288°
2026-05-06 19:21 16.75680 -99.74621 26 ft 29 kts 289°
2026-05-06 19:22 16.75741 -99.74811 26 ft 26 kts 288°
2026-05-06 19:22 16.75799 -99.74993 26 ft 23 kts 288°
2026-05-06 19:22 16.75849 -99.75133 26 ft 19 kts 304°
2026-05-06 19:22 16.75969 -99.75209 26 ft 19 kts 340°
2026-05-06 19:23 16.76059 -99.75184 26 ft 13 kts 57°
2026-05-06 19:23 16.76122 -99.75169 26 ft 11 kts 347°
2026-05-06 19:23 16.76168 -99.75187 26 ft 7 kts 336°
2026-05-06 19:23 16.76173 -99.75190 26 ft 0 kts 336°